Regional Weather Roundup
Issued by NWS

Home | Current Version | Previous Version | Graphics & Text | Print | Product List | Glossary On
Versions: 1 2 3 4 5 6 7 8 9 10 11 12 13 14 15 16 17 18 19 20 21 22 23 24 25 26 27 28 29 30 31 32 33 34 35 36 37 38 39 40 41 42 43 44 45 46 47 48 49 50
000
ASUS43 KMPX 010501
RWRMN
WEATHER ROUNDUP FOR MINNESOTA
NATIONAL WEATHER SERVICE TWIN CITIES/CHANHASSEN MN
1200 AM CDT WED OCT 01 2014


NOTE: "FAIR" INDICATES FEW OR NO CLOUDS BELOW 12,000 FEET WITH NO
SIGNIFICANT WEATHER AND/OR OBSTRUCTIONS TO VISIBILITY. N/A MEANS
CURRENT SKY AND/OR WEATHER CONDITIONS ARE NOT AVAILABLE.

MNZ060>063-068>070-010600-
   Twin Cities Metro

CITY           SKY/WX    TMP DP  RH WIND       PRES   REMARKS
TWIN CITIES    CLOUDY    52  45  77 SE13      29.88R
ST PAUL        CLOUDY    52  46  80 SE10G20   29.91R
CRYSTAL        CLOUDY    54  45  71 SE9       29.86F
BLAINE         CLOUDY    54  48  82 SE6       29.88R
LAKEVILLE      CLOUDY    52  46  82 SE9       29.88R
EDEN PRAIRIE   CLOUDY    53  47  79 SE9       29.87R
SOUTH ST PAUL  CLOUDY    53  46  76 S10G16    29.90R
LAKE ELMO      FAIR      52  45  76 S7        29.90R
$$
MNZ001>005-007-008-013>017-022>024-027-028-010600-
   Northwest Minnesota

CITY           SKY/WX    TMP DP  RH WIND       PRES   REMARKS
BEMIDJI        CLOUDY    51  45  79 SE18      29.75F
HALLOCK        CLOUDY    57  46  67 SE17G24   29.58F
ROSEAU         CLOUDY    55  46  71 SE15      29.67F
WARROAD        CLOUDY    52  46  82 SE14      29.69F
THIEF RVR FALL CLOUDY    55  46  71 SE18G25   29.64S
CROOKSTON      MOCLDY    59  50  72 S26G41    29.60F
FOSSTON        MOCLDY    54  45  71 SE18G25   29.67F
DETROIT LAKES  CLOUDY    54  46  76 SE22G28   29.71R
PARK RAPIDS    MOCLDY    51  44  77 SE16      29.75F
MAHNOMEN       FAIR      54  47  75 SE17G32   29.67S
$$
MNZ006-009>011-018-025>026-010600-
   North Central Minnesota

CITY           SKY/WX    TMP DP  RH WIND       PRES   REMARKS
BAUDETTE       CLOUDY    50  41  71 SE10G23   29.75F
FLAG ISLAND    CLOUDY    54  45  71 SE25      29.72F
INTL FALLS     CLOUDY    45  40  82 SE14G20   29.85F
WASKISH        CLOUDY    52  45  76 SE14G23   29.77S
BIG FORK       CLOUDY    46  43  87 SE8       29.85F
LONGVILLE      CLOUDY    48  45  87 SE6       29.81F
GRAND RAPIDS   CLOUDY    46  41  81 SE12G22   29.86S
CRANE LAKE     MOCLDY    41  37  87 CALM      29.91S
ORR            MOCLDY    41  37  87 SE5       29.87R
COOK           MOCLDY    43  39  87 SE3       29.90R
WALKER         CLOUDY    51  45  79 SE12G17   29.78F
$$
MNZ012-019>021-037-010600-
   Northeast Minnesota

CITY           SKY/WX    TMP DP  RH WIND       PRES   REMARKS
DULUTH         CLOUDY    47  45  93 SE12G20   29.94R
ELY            CLOUDY    43  39  87 SE6       29.90F
HIBBING        CLOUDY    47  42  83 SE9       29.91S
EVELETH        CLOUDY    43  41  93 SE5       29.93R
DULUTH HARBOR  MOCLDY    50  46  87 E12       29.95S
TWO HARBORS    CLOUDY    46  41  81 E10       29.93S
SILVER BAY     CLOUDY    45  45 100 NE9       29.94F
GRAND MARAIS     N/A     46  42  86 NE8       30.01F
G MARAIS ARPRT CLOUDY    39  36  87 E7        29.99F FOG
$$
MNZ029>031-032-039>041-046>048-054>057-064-010600-
   West Central Minnesota

CITY           SKY/WX    TMP DP  RH WIND       PRES   REMARKS
FERGUS FALLS   CLOUDY    57  50  77 SE21G26   29.68F
WHEATON        PTCLDY    59  55  88 SE20      29.67S
MORRIS         PTCLDY    59  55  88 SE17      29.70F
ALEXANDRIA     CLEAR     52  48  86 SE15      29.76S
ELBOW LAKE     CLOUDY    59  55  84 SE26G33   29.69F
WADENA         PTCLDY    50  45  81 SE12      29.75S
GLENWOOD       CLEAR     54  50  87 SE9       29.77R
APPLETON       PTCLDY    61  55  82 S12G17    29.71F
BENSON         PTCLDY    57  55  94 S12       29.74S
ORTONVILLE     MOCLDY    61  55  82 S9        29.69R
MADISON        PTCLDY    63  59  88 S10       29.71F
WILLMAR        FAIR      57  54  88 SE14G20   29.79S
$$
MNZ033>034-036-042>043-049>051-058-059-010600-
   Central Minnesota

CITY           SKY/WX    TMP DP  RH WIND       PRES   REMARKS
ST CLOUD       CLOUDY    55  46  71 SE12      29.82F
SAUK CENTRE    FAIR      52  47  83 SE10      29.79S
PAYNESVILLE    CLEAR     51  47  86 E10       29.80F
AITKIN         CLOUDY    52  45  76 E7        29.83F
PINE RIVER     CLOUDY    52  46  82 SE9G18    29.83F
BRAINERD       CLOUDY    50  44  80 SE7       29.82F
STAPLES        MOCLDY    52  45  76 SE9       29.78S
LONG PRAIRIE   FAIR      50  46  87 E9        29.79S
LITTLE FALLS   MOCLDY    50  43  76 SE12G17   29.81S
LITCHFIELD     PTCLDY    57  54  88 SE8       29.83R
BUFFALO        CLOUDY    53  46  77 SE8       29.85F
MAPLE LAKE     CLOUDY    55  49  81 SE7       29.84F
$$
MNZ037-044-045-052-053-010600-
   East Central Minnesota

CITY           SKY/WX    TMP DP  RH WIND       PRES   REMARKS
PRINCETON      CLOUDY    52  46  82 SE8       29.86F
MORA           CLOUDY    50  43  76 SE9G16    29.89S
CAMBRIDGE      CLOUDY    54  43  66 E6        29.85F
RUSH CITY      CLOUDY    50  44  78 SE5       29.89S
MOOSE LAKE     CLOUDY    45  41  87 E5        29.89F
HINCKLEY       FAIR      52  45  76 E7        29.88F
CLOQUET        CLOUDY    46  43  87 E5        29.93R
MCGREGOR       CLOUDY    48  45  87 SE8       29.88S
$$
MNZ071>073-080-081-089-090-097-098-010600-
   Southwest Minnesota

CITY           SKY/WX    TMP DP  RH WIND       PRES   REMARKS
MONTEVIDEO     PTCLDY    57  57 100 S9        29.75S
GRANITE FALLS  PTCLDY    57  56  94 SE10      29.77S
CANBY          MOCLDY    62  58  86 S15G22    29.73S
MARSHALL       CLOUDY    61  55  82 S18G25    29.75S
REDWOOD FALLS  PTCLDY    59  56  89 SE16      29.78S
OLIVIA         PTCLDY    57  54  88 SE10G16   29.78S
PIPESTONE      CLOUDY    61  57  88 S15G22    29.77S
WINDOM         PTCLDY    57  55  94 SE15      29.80F
WORTHINGTON    CLOUDY    59  57  94 S14G20    29.80S
JACKSON        MOCLDY    59  55  88 S12       29.82F
TRACY          PTCLDY    60  58  92 S14G21    29.77S
SLAYTON        CLOUDY    59  58  96 S18G25    29.79S
$$
MNZ065>067-074>077-082>085-091>093-010600-
   South Central Minnesota

CITY           SKY/WX    TMP DP  RH WIND       PRES   REMARKS
MANKATO        CLOUDY    55  46  71 SE14      29.84F
NEW ULM        PTCLDY    57  55  94 SE13G21   29.81F
ST JAMES       MOCLDY    61  55  82 SE14G21   29.83S
FAIRMONT       CLOUDY    57  52  82 SE16      29.82F
GLENCOE        CLOUDY    57  49  74 SE8       29.83S
FARIBAULT      CLOUDY    54  48  82 SE13      29.88R
OWATONNA       MOCLDY    54  46  76 SE13G22   29.87S
WASECA         PTCLDY    52  43  71 SE14      29.88S
ALBERT LEA     MOCLDY    54  48  82 SE13      29.88S
$$
MNZ078>079-086>088-094>096-010600-
   Southeast Minnesota

CITY           SKY/WX    TMP DP  RH WIND       PRES   REMARKS
ROCHESTER      CLOUDY    49  44  83 SE12      29.93S
RED WING       CLOUDY    52  45  76 SE17      29.91S
STANTON        CLOUDY    54  46  75 SE12G22   29.86S
DODGE CENTER   CLOUDY    52  46  82 SE13      29.90F
WINONA         CLOUDY    48  43  81 SE7       29.97S
AUSTIN         CLOUDY    52  46  82 SE10      29.90S
PRESTON        CLOUDY    47  43  84 SE10      29.93F
$$
ABBREVIATIONS USED IN REMARKS
   TC - TEMPERATURES IN CELSIUS
  WCI - WIND CHILL INDEX
   HX - HEAT INDEX
  VSB - VISIBILITY
$$


USA.gov is the U.S. government's official web portal to all federal, state and local government web resources and services.